Météo par heure à Jurki

Ce jour, 17 Juin, Jeudi

Heure Température Précipitation Vent Pression Humidité
00:00 +16°C° 0 mm 2 m/s 752 mmHg 84%
01:00 +16°C° 0 mm 2 m/s 752 mmHg 85%
02:00 +15°C° 0 mm 2 m/s 752 mmHg 85%
03:00 +15°C° 0 mm 2 m/s 752 mmHg 84%
04:00 +15°C° 0 mm 2 m/s 752 mmHg 84%
05:00 +16°C° 0 mm 2 m/s 752 mmHg 78%
06:00 +18°C° 0 mm 2 m/s 752 mmHg 73%
07:00 +20°C° 0 mm 3 m/s 752 mmHg 67%
08:00 +21°C° 0 mm 3 m/s 752 mmHg 62%
09:00 +24°C° 0 mm 3 m/s 753 mmHg 58%
10:00 +25°C° 0 mm 4 m/s 753 mmHg 53%
11:00 +26°C° 0 mm 3 m/s 753 mmHg 50%
12:00 +26°C° 0 mm 3 m/s 752 mmHg 47%
13:00 +27°C° 0 mm 3 m/s 752 mmHg 43%
14:00 +27°C° 0 mm 3 m/s 752 mmHg 43%
15:00 +27°C° 0 mm 4 m/s 752 mmHg 44%
16:00 +27°C° 0 mm 4 m/s 752 mmHg 44%
17:00 +25°C° 0 mm 4 m/s 752 mmHg 52%
18:00 +24°C° 0 mm 3 m/s 752 mmHg 60%
19:00 +21°C° 0 mm 3 m/s 752 mmHg 68%
20:00 +20°C° 0 mm 3 m/s 752 mmHg 70%
21:00 +19°C° 0 mm 3 m/s 752 mmHg 72%
22:00 +18°C° 0 mm 3 m/s 753 mmHg 74%
23:00 +17°C° 0 mm 3 m/s 752 mmHg 77%

Demain, 18 Juin, Vendredi

Heure Température Précipitation Vent Pression Humidité
00:00 +17°C° 0 mm 3 m/s 752 mmHg 80%
01:00 +16°C° 0 mm 3 m/s 752 mmHg 82%
02:00 +16°C° 0 mm 3 m/s 752 mmHg 84%
03:00 +16°C° 0 mm 3 m/s 752 mmHg 86%
04:00 +16°C° 0 mm 3 m/s 752 mmHg 88%
05:00 +18°C° 0 mm 3 m/s 752 mmHg 83%
06:00 +20°C° 0 mm 4 m/s 752 mmHg 78%
07:00 +22°C° 0 mm 4 m/s 752 mmHg 72%
08:00 +23°C° 0 mm 5 m/s 752 mmHg 67%
09:00 +26°C° 0 mm 5 m/s 752 mmHg 62%
10:00 +27°C° 0 mm 5 m/s 752 mmHg 56%
11:00 +28°C° 0 mm 5 m/s 752 mmHg 54%
12:00 +29°C° 0 mm 5 m/s 752 mmHg 52%
13:00 +29°C° 0 mm 5 m/s 751 mmHg 49%
14:00 +29°C° 0 mm 5 m/s 751 mmHg 50%
15:00 +29°C° 0 mm 5 m/s 751 mmHg 51%
16:00 +29°C° 0 mm 5 m/s 751 mmHg 52%
17:00 +27°C° 0 mm 4 m/s 751 mmHg 59%
18:00 +26°C° 0 mm 4 m/s 751 mmHg 65%
19:00 +25°C° 0 mm 3 m/s 751 mmHg 72%
20:00 +22°C° 0 mm 3 m/s 751 mmHg 76%
21:00 +21°C° 0 mm 3 m/s 751 mmHg 80%
22:00 +20°C° 0 mm 3 m/s 751 mmHg 84%
23:00 +19°C° 0 mm 3 m/s 751 mmHg 86%

Après-demain, 19 Juin, Samedi

Heure Température Précipitation Vent Pression Humidité
00:00 +19°C° 0 mm 3 m/s 751 mmHg 89%
01:00 +18°C° 0 mm 3 m/s 751 mmHg 91%
02:00 +18°C° 0 mm 3 m/s 751 mmHg 92%
03:00 +18°C° 0 mm 3 m/s 751 mmHg 92%
04:00 +18°C° 0 mm 3 m/s 751 mmHg 93%
05:00 +19°C° 0 mm 3 m/s 751 mmHg 87%
06:00 +21°C° 0 mm 4 m/s 751 mmHg 81%
07:00 +23°C° 0 mm 4 m/s 751 mmHg 75%
08:00 +25°C° 0 mm 4 m/s 751 mmHg 70%
09:00 +27°C° 0 mm 5 m/s 750 mmHg 64%
10:00 +28°C° 0 mm 5 m/s 750 mmHg 59%
11:00 +29°C° 0 mm 5 m/s 750 mmHg 56%
12:00 +30°C° 0 mm 5 m/s 750 mmHg 53%
13:00 +30°C° 0 mm 5 m/s 749 mmHg 50%
14:00 +30°C° 0 mm 4 m/s 749 mmHg 50%
15:00 +30°C° 0 mm 4 m/s 749 mmHg 49%
16:00 +30°C° 0 mm 4 m/s 749 mmHg 49%
17:00 +29°C° 0 mm 4 m/s 749 mmHg 56%
18:00 +28°C° 0 mm 4 m/s 749 mmHg 63%
19:00 +26°C° 0 mm 4 m/s 749 mmHg 71%
20:00 +25°C° 0 mm 4 m/s 749 mmHg 74%
21:00 +23°C° 0 mm 4 m/s 749 mmHg 78%
22:00 +21°C° 0 mm 3 m/s 749 mmHg 82%
23:00 +21°C° 0 mm 3 m/s 749 mmHg 85%

20 Juin, Dimanche

Heure Température Précipitation Vent Pression Humidité
00:00 +20°C° 0 mm 3 m/s 749 mmHg 88%
01:00 +19°C° 0 mm 3 m/s 749 mmHg 90%
02:00 +19°C° 0 mm 3 m/s 749 mmHg 91%
03:00 +19°C° 0 mm 3 m/s 749 mmHg 92%
04:00 +18°C° 0 mm 3 m/s 749 mmHg 93%
05:00 +20°C° 0 mm 3 m/s 749 mmHg 86%
06:00 +21°C° 0 mm 3 m/s 749 mmHg 80%
07:00 +23°C° 0 mm 4 m/s 749 mmHg 73%
08:00 +25°C° 0 mm 4 m/s 749 mmHg 67%
09:00 +26°C° 0 mm 4 m/s 749 mmHg 61%
10:00 +28°C° 0 mm 4 m/s 749 mmHg 55%
11:00 +28°C° 0 mm 4 m/s 748 mmHg 53%
12:00 +29°C° 0 mm 4 m/s 748 mmHg 50%
13:00 +30°C° 0 mm 4 m/s 748 mmHg 48%
14:00 +30°C° 0 mm 4 m/s 748 mmHg 48%
15:00 +30°C° 0 mm 4 m/s 747 mmHg 48%
16:00 +30°C° 0 mm 4 m/s 747 mmHg 48%
17:00 +29°C° 0 mm 4 m/s 747 mmHg 55%
18:00 +27°C° 0 mm 4 m/s 747 mmHg 62%
19:00 +26°C° 0 mm 4 m/s 747 mmHg 70%
20:00 +25°C° 0 mm 4 m/s 747 mmHg 72%
21:00 +23°C° 0 mm 4 m/s 747 mmHg 75%
22:00 +22°C° 0 mm 4 m/s 747 mmHg 78%
23:00 +21°C° 0 mm 3 m/s 747 mmHg 81%

21 Juin, Lundi

Heure Température Précipitation Vent Pression Humidité
00:00 +20°C° 0 mm 3 m/s 747 mmHg 84%
01:00 +20°C° 0 mm 3 m/s 747 mmHg 87%
02:00 +19°C° 0 mm 3 m/s 746 mmHg 88%
03:00 +19°C° 0 mm 3 m/s 746 mmHg 89%
04:00 +19°C° 0 mm 3 m/s 746 mmHg 90%
05:00 +20°C° 0 mm 4 m/s 746 mmHg 84%
06:00 +22°C° 0 mm 5 m/s 746 mmHg 77%
07:00 +25°C° 0 mm 5 m/s 746 mmHg 71%
08:00 +26°C° 0 mm 5 m/s 746 mmHg 65%
09:00 +28°C° 0 mm 5 m/s 746 mmHg 59%
10:00 +29°C° 0 mm 5 m/s 746 mmHg 53%
11:00 +30°C° 0 mm 5 m/s 746 mmHg 50%
12:00 +30°C° 0 mm 5 m/s 746 mmHg 47%
13:00 +32°C° 0 mm 4 m/s 746 mmHg 44%
14:00 +32°C° 0 mm 4 m/s 746 mmHg 44%
15:00 +32°C° 0 mm 4 m/s 746 mmHg 45%
16:00 +32°C° 0 mm 4 m/s 745 mmHg 46%
17:00 +29°C° 0 mm 4 m/s 745 mmHg 53%
18:00 +28°C° 0 mm 3 m/s 745 mmHg 60%
19:00 +27°C° 0 mm 3 m/s 745 mmHg 66%
20:00 +25°C° 0 mm 3 m/s 745 mmHg 70%
21:00 +24°C° 0 mm 3 m/s 745 mmHg 74%
22:00 +22°C° 0 mm 3 m/s 745 mmHg 78%
23:00 +21°C° 0 mm 3 m/s 745 mmHg 81%

22 Juin, Mardi

Heure Température Précipitation Vent Pression Humidité
00:00 +21°C° 0 mm 3 m/s 745 mmHg 84%
01:00 +20°C° 0 mm 2 m/s 745 mmHg 86%
02:00 +20°C° 0 mm 2 m/s 745 mmHg 88%
03:00 +20°C° 0 mm 2 m/s 745 mmHg 89%
04:00 +19°C° 0 mm 2 m/s 744 mmHg 91%
05:00 +21°C° 0 mm 3 m/s 744 mmHg 85%
06:00 +23°C° 0 mm 4 m/s 744 mmHg 79%
07:00 +25°C° 0 mm 4 m/s 744 mmHg 73%
08:00 +27°C° 0 mm 5 m/s 744 mmHg 67%
09:00 +28°C° 0 mm 5 m/s 744 mmHg 61%
10:00 +30°C° 0 mm 5 m/s 744 mmHg 56%
11:00 +30°C° 0 mm 5 m/s 744 mmHg 52%
12:00 +32°C° 0 mm 4 m/s 744 mmHg 49%
13:00 +33°C° 0 mm 4 m/s 744 mmHg 46%
14:00 +33°C° 0 mm 4 m/s 744 mmHg 46%
15:00 +33°C° 0 mm 4 m/s 744 mmHg 46%
16:00 +33°C° 0 mm 4 m/s 744 mmHg 46%
17:00 +32°C° 0.1 mm 4 m/s 744 mmHg 52%
18:00 +29°C° 0.1 mm 4 m/s 744 mmHg 59%
19:00 +28°C° 0.1 mm 4 m/s 744 mmHg 65%
20:00 +26°C° 1.6 mm 3 m/s 745 mmHg 74%
21:00 +24°C° 1.6 mm 3 m/s 745 mmHg 84%
22:00 +21°C° 1.6 mm 2 m/s 746 mmHg 94%
23:00 +21°C° 0.2 mm 2 m/s 746 mmHg 94%
Voir plus

Nous avons besoin de votre consentement

Meteoprog et ses fournisseurs de services peuvent stocker et accéder à des données personnelles telles que des cookies, des identifiants d'appareils ou d'autres technologies similaires sur votre appareil et traiter ces données pour personnaliser le contenu et les publicités, ainsi que pour fournir des fonctionnalités de médias sociaux et analyser le trafic.

  • Stocker et/ou accéder à des informations sur votre appareil

    Des cookies, des identifiants d'appareils ou d'autres informations peuvent être stockés ou accessibles sur votre appareil aux fins indiquées ci-dessus.

  • Annonces et contenus personnalisés, mesure des annonces et des contenus, connaissance de l'audience et développement de produits

    Les annonces et le contenu peuvent être personnalisés en fonction d'un profil. D'autres données peuvent être ajoutées pour mieux personnaliser les annonces et le contenu. Les performances des publicités et du contenu peuvent être mesurées. Il est possible d'obtenir des informations sur le public qui a vu les publicités et le contenu. Ces données peuvent être utilisées pour développer ou améliorer l'expérience de l'utilisateur, les systèmes et les logiciels.

En cliquant sur "J'accepte", vous autorisez l'utilisation de cookies, des identifiants d'appareils, des balises web ou d'autres technologies similaires. Vos paramètres peuvent être modifiés dans le navigateur de votre appareil.

Dans certains cas, des intérêts légitimes peuvent être invoqués plutôt qu'un consentement. Vous pouvez en savoir plus à ce sujet dans notre Politique de confidentialité et de cookies.